Regional Weather Roundup
Issued by NWS

Home | Current Version | Previous Version | Graphics & Text | Print | Product List | Glossary Off
Versions: 1 2 3 4 5 6 7 8 9 10 11 12 13 14 15 16 17 18 19 20 21 22 23 24 25 26 27 28 29 30 31 32 33 34 35 36 37 38 39 40 41 42 43 44 45 46 47 48 49 50

000
ASUS45 KBOU 011610
RWRCO

WEATHER ROUNDUP FOR COLORADO
NATIONAL WEATHER SERVICE DENVER/BOULDER CO
1000 AM MDT SAT AUG 01 2015

NOTE: "FAIR" INDICATES FEW OR NO CLOUDS BELOW 12000 FEET WITH NO
SIGNIFICANT WEATHER AND/OR OBSTRUCTIONS TO VISIBILITY.

COZ001>005-013-030-031-011700-
...NORTHWEST COLORADO...

CITY           SKY/WX    TMP DP  RH WIND       PRES   REMARKS
CRAIG          SUNNY     76  41  28 NE8       30.29F
HAYDEN         SUNNY     70  39  32 CALM      30.32F
MEEKER         SUNNY     74  41  30 CALM      30.30F
MOUNT WERNER   NOT AVBL
STEAMBOAT SPGS SUNNY     67  42  40 CALM      30.34F
WALDEN         SUNNY     70  45  40 CALM      30.41F
$$

COZ006>008-011-011700-
...WEST CENTRAL VALLEYS...

CITY           SKY/WX    TMP DP  RH WIND       PRES   REMARKS
GRAND JUNCTION SUNNY     80  47  31 SE10      30.19F
MONTROSE       PTSUNNY   76  47  35 SE8       30.29F
EAGLE          SUNNY     70  43  37 CALM      30.35F
RIFLE          SUNNY     75  47  36 VRB3      30.25F
DELTA          PTSUNNY   80  47  32 CALM      30.25F
NUCLA          PTSUNNY   72  48  43 CALM      30.34F
$$

COZ017>023-064>068-011700-
...SOUTHWEST COLORADO...

CITY           SKY/WX    TMP DP  RH WIND       PRES   REMARKS
DURANGO        PTSUNNY   70  53  54 E6        30.37S
CORTEZ         RAIN      62  60  93 CALM      30.32F FOG
PAGOSA SPRINGS CLOUDY    65  50  58 CALM      30.44S
TELLURIDE      CLOUDY    59  49  68 CALM      30.53S
WOLF CREEK PAS NOT AVBL
$$

COZ009-010-012-014-032>034-037-058>063-011700-
...CENTRAL COLORADO...

CITY           SKY/WX    TMP DP  RH WIND       PRES   REMARKS
ASPEN          MOSUNNY   69  44  40 CALM      30.40F
BUENA VISTA    MOSUNNY   67  46  45 CALM      30.42F
COPPER MTN     SUNNY     59  34  38 W18       30.73S
BERTHOUD PASS  FAIR      50  41  71 N8        30.76S
COTTONWOOD PAS MOSUNNY   68  46  45 E5        30.55F
GUNNISON       MOSUNNY   64  45  48 N3        30.45F
KREMMLING      SUNNY     70  43  37 CALM      30.40F
LEADVILLE      SUNNY     65  36  34 VRB3      30.55S
MONARCH PASS   MOSUNNY   54  41  62 SW10      30.82S
SALIDA         NOT AVBL
SUNLIGHT       SUNNY     63  45  51 CALM      30.66S
WILKERSON PASS SUNNY     59  37  44 NW5       30.68R
$$

COZ069>075-011700-
...SAN LUIS VALLEY/SANGRE DE CRISTO MOUNTAINS...

CITY           SKY/WX    TMP DP  RH WIND       PRES   REMARKS
ALAMOSA        MOSUNNY   67  50  54 CALM      30.41F
LA VETA PASS   PTSUNNY   55  43  62 MISG      30.56S
SAGUACHE       PTSUNNY   64  50  59 W3        30.45S
$$

COZ035-036-038>040-011700-
...NORTHERN COLORADO FRONT RANGE...

CITY           SKY/WX    TMP DP  RH WIND       PRES   REMARKS
DENVER INTL AP MOSUNNY   79  51  37 W7        30.19S
DMNS CITY PARK   N/A     81  52  36 W2G10     30.18F
AURORA         MOSUNNY   77  51  41 SW7       30.21F
FRONT RANGE AP MOSUNNY   79  48  34 SW7       30.20S
ERIE MUNI ARPT SUNNY     76  50  40 CALM      30.17F
BOULDER MUN AP SUNNY     77  48  36 CALM      30.17F
CENTENNIAL     MOSUNNY   77  49  37 VRB5      30.22F
BROOMFIELD     NOT AVBL
FORT COLLINS   SUNNY     75  55  50 N7        30.17F
LONGMONT       SUNNY     80  50  35 CALM      30.18S
$$

COZ041-046-047-076>085-087-088-011700-
...PIKES PEAK/PALMER DIVIDE AND SOUTHERN FOOTHILLS...

CITY           SKY/WX    TMP DP  RH WIND       PRES   REMARKS
COLO. SPRINGS  MOSUNNY   73  55  53 S7        30.27F
A. F. ACADEMY  SUNNY     73  56  56 VRB2      30.28S
ELLICOTT       SUNNY    N/A N/A N/A S7        30.25F
FALCON         SUNNY     72  55  54 S9        30.33R
FORT CARSON    SUNNY     73  57  56 VRB2      30.23F
LIMON          SUNNY     76  61  59 S14G21    30.21F
MONUMENT HILL  NOT AVBL
TRINIDAD       SUNNY     78  53  41 CALM      30.24F
$$

COZ042>045-048>051-090-091-011700-
...NORTHEAST COLORADO...

CITY           SKY/WX    TMP DP  RH WIND       PRES   REMARKS
GREELEY ARPT   SUNNY     77  55  47 SE5       30.15F
AKRON          SUNNY     83  58  42 S12       30.16F
BURLINGTON     SUNNY     80  60  50 S15       30.17S
WRAY           SUNNY     86  62  44 S8        30.12S
STERLING       SUNNY     81  63  54 SW13      30.10F
HOLYOKE        NOT AVBL
FORT MORGAN    SUNNY     80  62  54 S7        30.15F
$$

COZ086-089-092>099-011700-
...SOUTHEAST COLORADO...

CITY           SKY/WX    TMP DP  RH WIND       PRES   REMARKS
PUEBLO         SUNNY     78  57  48 VRB3      30.17F
LA JUNTA       SUNNY     80  62  54 CALM      30.14F
LAMAR          SUNNY     83  63  50 VRB5      30.11F
SPRINGFIELD      N/A     77  64  64 VRB5      30.16F
$$


USA.gov is the U.S. government's official web portal to all federal, state and local government web resources and services.